• In Hungary
  • List of Countries
  • For 7 days
  • Water Temperature
  • Satellite Maps
  • Weather Map
  • News
  • Weather Widgets
  • user-avatar
    Login

    Hourly Weather Cochabamba

    Today, 25 May, Friday

    Time Temperature Precipitation Wind Pressure Humidity
    00:00 +10°C° 0 mm 1 mps 555 mmHg 77%
    01:00 +10°C° 0 mm 1 mps 555 mmHg 77%
    02:00 +9°C° 0 mm 1 mps 554 mmHg 72%
    03:00 +9°C° 0 mm 1 mps 554 mmHg 70%
    04:00 +9°C° 0 mm 1 mps 554 mmHg 67%
    05:00 +9°C° 0 mm 1 mps 554 mmHg 64%
    06:00 +11°C° 0 mm 1 mps 555 mmHg 56%
    07:00 +12°C° 0 mm 1 mps 557 mmHg 48%
    08:00 +14°C° 0 mm 1 mps 558 mmHg 40%
    09:00 +16°C° 0 mm 1 mps 559 mmHg 35%
    10:00 +19°C° 0 mm 1 mps 559 mmHg 30%
    11:00 +21°C° 0 mm 1 mps 560 mmHg 26%
    12:00 +21°C° 0 mm 1 mps 560 mmHg 26%
    13:00 +21°C° 0 mm 2 mps 560 mmHg 27%
    14:00 +21°C° 0 mm 2 mps 559 mmHg 27%
    15:00 +21°C° 0 mm 2 mps 558 mmHg 33%
    16:00 +20°C° 0 mm 3 mps 558 mmHg 40%
    17:00 +19°C° 0 mm 3 mps 557 mmHg 46%
    18:00 +17°C° 0 mm 3 mps 556 mmHg 56%
    19:00 +14°C° 0 mm 2 mps 556 mmHg 65%
    20:00 +12°C° 0 mm 1 mps 555 mmHg 75%
    21:00 +12°C° 0 mm 1 mps 555 mmHg 76%
    22:00 +11°C° 0 mm 1 mps 555 mmHg 77%
    23:00 +11°C° 0 mm 1 mps 555 mmHg 78%

    Tomorrow, 26 May, Saturday

    Time Temperature Precipitation Wind Pressure Humidity
    00:00 +10°C° 0 mm 1 mps 554 mmHg 78%
    01:00 +10°C° 0 mm 1 mps 554 mmHg 78%
    02:00 +9°C° 0 mm 1 mps 554 mmHg 78%
    03:00 +9°C° 0 mm 1 mps 554 mmHg 77%
    04:00 +9°C° 0 mm 1 mps 553 mmHg 75%
    05:00 +9°C° 0 mm 1 mps 553 mmHg 73%
    06:00 +11°C° 0 mm 1 mps 554 mmHg 66%
    07:00 +12°C° 0 mm 1 mps 556 mmHg 60%
    08:00 +14°C° 0 mm 2 mps 557 mmHg 53%
    09:00 +16°C° 0 mm 2 mps 558 mmHg 47%
    10:00 +18°C° 0 mm 2 mps 558 mmHg 41%
    11:00 +19°C° 0 mm 2 mps 559 mmHg 34%
    12:00 +20°C° 0 mm 2 mps 558 mmHg 36%
    13:00 +20°C° 0 mm 3 mps 558 mmHg 37%
    14:00 +21°C° 0 mm 3 mps 557 mmHg 38%
    15:00 +20°C° 0 mm 3 mps 557 mmHg 43%
    16:00 +19°C° 0 mm 3 mps 556 mmHg 48%
    17:00 +18°C° 0 mm 4 mps 555 mmHg 53%
    18:00 +17°C° 0 mm 3 mps 555 mmHg 61%
    19:00 +15°C° 0 mm 2 mps 554 mmHg 68%
    20:00 +13°C° 0 mm 2 mps 554 mmHg 76%
    21:00 +13°C° 0 mm 2 mps 554 mmHg 75%
    22:00 +12°C° 0 mm 2 mps 554 mmHg 74%
    23:00 +12°C° 0 mm 2 mps 554 mmHg 73%

    Day after tomorrow, 27 May, Sunday

    Time Temperature Precipitation Wind Pressure Humidity
    00:00 +12°C° 0 mm 2 mps 554 mmHg 72%
    01:00 +10°C° 0 mm 2 mps 554 mmHg 70%
    02:00 +10°C° 0 mm 2 mps 554 mmHg 68%
    03:00 +10°C° 0 mm 2 mps 553 mmHg 67%
    04:00 +10°C° 0 mm 2 mps 553 mmHg 65%
    05:00 +10°C° 0 mm 2 mps 553 mmHg 64%
    06:00 +12°C° 0 mm 2 mps 554 mmHg 60%
    07:00 +13°C° 0 mm 2 mps 555 mmHg 56%
    08:00 +14°C° 0 mm 2 mps 556 mmHg 52%
    09:00 +16°C° 0 mm 2 mps 557 mmHg 49%
    10:00 +18°C° 0 mm 2 mps 558 mmHg 45%
    11:00 +19°C° 0 mm 2 mps 559 mmHg 41%
    12:00 +19°C° 0.1 mm 3 mps 558 mmHg 44%
    13:00 +19°C° 0.1 mm 3 mps 558 mmHg 48%
    14:00 +19°C° 0.1 mm 4 mps 557 mmHg 52%
    15:00 +19°C° 0.1 mm 4 mps 557 mmHg 55%
    16:00 +18°C° 0.1 mm 4 mps 556 mmHg 58%
    17:00 +17°C° 0.1 mm 4 mps 556 mmHg 62%
    18:00 +16°C° 0 mm 3 mps 556 mmHg 67%
    19:00 +14°C° 0 mm 3 mps 556 mmHg 73%
    20:00 +14°C° 0 mm 2 mps 556 mmHg 78%
    21:00 +13°C° 0 mm 2 mps 556 mmHg 79%
    22:00 +13°C° 0 mm 2 mps 556 mmHg 80%
    23:00 +12°C° 0 mm 1 mps 556 mmHg 81%

    28 May, Monday

    Time Temperature Precipitation Wind Pressure Humidity
    00:00 +12°C° 0 mm 1 mps 556 mmHg 82%
    01:00 +12°C° 0 mm 1 mps 555 mmHg 83%
    02:00 +11°C° 0 mm 1 mps 555 mmHg 84%
    03:00 +11°C° 0 mm 1 mps 555 mmHg 83%
    04:00 +11°C° 0 mm 1 mps 554 mmHg 82%
    05:00 +10°C° 0 mm 1 mps 554 mmHg 81%
    06:00 +11°C° 0 mm 1 mps 555 mmHg 77%
    07:00 +12°C° 0 mm 2 mps 556 mmHg 72%
    08:00 +13°C° 0 mm 2 mps 557 mmHg 68%
    09:00 +15°C° 0 mm 2 mps 557 mmHg 61%
    10:00 +17°C° 0 mm 2 mps 558 mmHg 54%
    11:00 +18°C° 0 mm 3 mps 559 mmHg 47%
    12:00 +19°C° 0.1 mm 3 mps 558 mmHg 47%
    13:00 +19°C° 0.1 mm 3 mps 558 mmHg 47%
    14:00 +20°C° 0.1 mm 4 mps 557 mmHg 47%
    15:00 +19°C° 0 mm 4 mps 556 mmHg 50%
    16:00 +19°C° 0 mm 4 mps 556 mmHg 53%
    17:00 +18°C° 0 mm 4 mps 555 mmHg 55%
    18:00 +17°C° 0 mm 4 mps 555 mmHg 62%
    19:00 +14°C° 0 mm 3 mps 555 mmHg 68%
    20:00 +12°C° 0 mm 3 mps 554 mmHg 75%
    21:00 +12°C° 0 mm 3 mps 554 mmHg 73%
    22:00 +12°C° 0 mm 2 mps 554 mmHg 70%
    23:00 +12°C° 0 mm 2 mps 554 mmHg 68%

    29 May, Tuesday

    Time Temperature Precipitation Wind Pressure Humidity
    00:00 +12°C° 0 mm 2 mps 554 mmHg 64%
    01:00 +10°C° 0 mm 2 mps 554 mmHg 60%
    02:00 +10°C° 0 mm 2 mps 553 mmHg 56%
    03:00 +9°C° 0 mm 2 mps 553 mmHg 51%
    04:00 +9°C° 0 mm 2 mps 553 mmHg 46%
    05:00 +9°C° 0 mm 2 mps 552 mmHg 42%
    06:00 +10°C° 0 mm 2 mps 553 mmHg 37%
    07:00 +12°C° 0 mm 2 mps 555 mmHg 33%
    08:00 +13°C° 0 mm 2 mps 556 mmHg 28%
    09:00 +15°C° 0 mm 2 mps 557 mmHg 25%
    10:00 +18°C° 0 mm 2 mps 557 mmHg 22%
    11:00 +20°C° 0 mm 2 mps 558 mmHg 19%
    12:00 +20°C° 0 mm 2 mps 558 mmHg 21%
    13:00 +21°C° 0 mm 2 mps 557 mmHg 23%
    14:00 +21°C° 0 mm 3 mps 557 mmHg 25%
    15:00 +21°C° 0 mm 3 mps 556 mmHg 30%
    16:00 +20°C° 0 mm 3 mps 556 mmHg 35%
    17:00 +19°C° 0 mm 3 mps 555 mmHg 41%
    18:00 +17°C° 0 mm 3 mps 554 mmHg 48%
    19:00 +14°C° 0 mm 3 mps 554 mmHg 55%
    20:00 +13°C° 0 mm 2 mps 553 mmHg 61%
    21:00 +12°C° 0 mm 2 mps 553 mmHg 55%
    22:00 +12°C° 0 mm 2 mps 553 mmHg 48%
    23:00 +10°C° 0 mm 2 mps 553 mmHg 41%

    30 May, Wednesday

    Time Temperature Precipitation Wind Pressure Humidity
    00:00 +10°C° 0 mm 2 mps 553 mmHg 36%
    01:00 +10°C° 0 mm 2 mps 553 mmHg 31%
    02:00 +9°C° 0 mm 2 mps 552 mmHg 26%
    03:00 +9°C° 0 mm 2 mps 552 mmHg 25%
    04:00 +9°C° 0 mm 2 mps 552 mmHg 24%
    05:00 +8°C° 0 mm 2 mps 552 mmHg 23%
    06:00 +10°C° 0 mm 2 mps 553 mmHg 23%
    07:00 +12°C° 0 mm 2 mps 554 mmHg 22%
    08:00 +14°C° 0 mm 2 mps 555 mmHg 22%
    09:00 +16°C° 0 mm 2 mps 556 mmHg 21%
    10:00 +18°C° 0 mm 2 mps 557 mmHg 21%
    11:00 +20°C° 0 mm 2 mps 558 mmHg 20%
    12:00 +20°C° 0 mm 3 mps 557 mmHg 23%
    13:00 +21°C° 0 mm 3 mps 557 mmHg 26%
    14:00 +21°C° 0 mm 3 mps 556 mmHg 29%
    15:00 +20°C° 0.1 mm 4 mps 555 mmHg 35%
    16:00 +19°C° 0.1 mm 4 mps 555 mmHg 40%
    17:00 +19°C° 0.1 mm 4 mps 554 mmHg 46%
    18:00 +17°C° 0 mm 3 mps 554 mmHg 54%
    19:00 +14°C° 0 mm 3 mps 553 mmHg 62%
    20:00 +13°C° 0 mm 2 mps 552 mmHg 70%
    21:00 +12°C° 0 mm 2 mps 552 mmHg 68%
    22:00 +12°C° 0 mm 2 mps 552 mmHg 65%
    23:00 +10°C° 0 mm 2 mps 552 mmHg 63%
    Show more